SCP
0 0 0 0 0 0 0 0 0 -0 -0 -0 -0 -0 -0 -0 -0 -0 -0 0 -0 0 -0 0 0 0 0 -0 0 -0 -0 -0 0 0 0 0 0 -0 0 -0 0 -0 -0
0 0 0 0 0 0 0 0 0 0 -0 -0 -0 -0 -0 -0 -0 -0 -0 -0 -0 -0 -0 0 0 0 0 -0 -0 0 0 0 0 0 0 0 0 -0 0 -0 -0 -0 -0
0 0 0 0 0 0 -0 0 0 0 -0 -0 -0 -0 -0 -0 -0 -0 -0 -0 -0 -0 0 0 0 0 0 0 0 0 0 0 0 0 0 0 0 -0 -0 -0 -0 -0 -0
0 0 0 0 0 0 0 0 0 0 0 -0 -0 -0 -0 -0 -0 -0 -0 0 0 -0 0 0 0 0 0 0 0 0 0 0 0 0 0 0 -0 -0 -0 -0 -0 -0 -0
0 0 0 0 0 0 0 0 0 0 0 0 0 0 -0 -0 -0 -0 -0 0 0 0 0 0 0 0 0 0 0 0 0 -0 -0 -0 0 -0 -0 -0 -0 -0 -0 -0 -0
0 0 0 0 0 0 0 0 0 0 0 0 0 0 0 -0 -0 -0 0 0 0 -0 0 0 0 0 0 -0 -0 0 0 0 0 -0 -0 -0 -0 -0 -0 -0 -0 -0 -0
0 0 0 0 0 0 0 0 0 0 0 0 0 0 -0 -0 -0 0 0 0 0 0 0 0 0 0 0 0 0 -0 0 -0 -0 -0 -0 -0 -0 -0 -0 -0 -0 -0 -0
0 0 0 0 0 0 0 0 0 0 0 0 0 0 -0 0 0 0 0 0 0 0 0 -0 -0 0 0 0 -0 -0 -0 0 -0 -0 0 -0 -0 -0 -0 -0 -0 -0 -0
-0 -0 0 0 0 0 0 0 0 0 -0 -0 -0 0 0 0 0 0 0 0 0 0 0 0 0 -0 0 -0 -0 -0 0 0 -0 -0 0 -0 -0 -0 -0 -0 -0 -0 -0
-0 0 0 0 0 0 0 0 0 -0 -0 -0 0 0 0 0 0 0 0 -0 0 0 0 0 0 0 0 -0 -0 -0 -0 -0 0 0 -0 0 -0 -0 -0 -0 -0 -0 -0
0 -0 0 0 0 0 0 -0 -0 -0 -0 0 0 0 0 0 0 0 0 0 0 0 0 0 0 0 0 -0 -0 -0 -0 0 -0 0 0 -0 -0 -0 -0 -0 -0 -0 -0
0 -0 0 0 0 0 0 0 -0 -0 0 0 0 0 0 0 0 0 0 0 0 -0 -0 0 0 0 0 0 0 0 0 -0 0 0 0 -0 -0 -0 -0 -0 -0 -0 -0
0 -0 -0 0 -0 0 -0 -0 -0 -0 -0 -0 0 0 0 -0 0 0 -0 0 0 -0 0 -0 0 -0 0 -0 -0 -0 -0 0 0 0 -0 0 -0 -0 -0 -0 -0 -0 -0
-0 -0 -0 -0 -0 -0 0 -0 -0 -0 -0 -0 0 0 -0 0 -0 -0 0 0 0 0 -0 0 -0 0 -0 -0 -0 -0 -0 -0 -0 0 0 0 -0 -0 -0 -0 -0 -0 -0
-0 -0 -0 -0 -0 -0 -0 -0 -0 0 -0 0 0 0 -0 -0 -0 0 0 -0 -0 0 0 -0 -0 0 -0 0 0 -0 -0 -0 0 -0 0 0 -0 -0 -0 -0 -0 -0 -0
-0 -0 -0 -0 0 -0 -0 -0 -0 -0 -0 0 -0 -0 0 -0 -0 -0 -0 -0 -0 0 0 0 0 0 -0 -0 0 0 0 0 0 0 -0 0 0 -0 -0 -0 -0 -0 -0
-0 -0 -0 -0 -0 -0 -0 -0 0 -0 0 0 -0 -0 -0 -0 -0 -0 -0 0 0 0 0 0 0 0 -0 0 0 0 0 0 0 0 0 0 0 0 -0 0 -0 -0 -0
-0 -0 -0 -0 -0 -0 -0 -0 -0 -0 -0 0 -0 -0 -0 -0 -0 -0 0 0 -0 0 0 0 0 0 0 0 0 0 0 0 0 0 0 0 0 0 0 -0 0 -0 -0
-0 -0 -0 -0 -1 -1 -0 -0 0 0 0 0 -0 -0 -0 -0 -0 -0 -0 0 0 0 0 0 0 0 0 0 0 0 0 0 -0 0 0 0 0 0 0 0 -0 0 -0
-0 -0 -0 -0 -0 -1 -1 -0 0 0 0 -0 -0 0 -0 -0 -0 -0 0 0 0 0 0 0 0 0 0 0 0 -0 0 0 -0 0 0 0 0 0 -0 -0 0 0 -0
-0 -1 -1 -0 -0 -1 -1 -0 -0 0 -0 -0 -0 0 -0 0 0 0 0 0 0 0 0 0 0 0 0 0 0 0 0 0 0 0 0 0 0 0 0 0 0 0 0
-0 -1 -1 -1 -0 -0 -0 -0 0 0 0 -0 -0 -0 -0 0 0 0 0 0 1 0 0 0 0 0 0 0 0 -0 0 0 0 0 0 0 0 0 0 0 0 0 0
-0 -1 -1 -1 -1 -0 -0 0 0 -0 -0 -0 0 0 0 0 0 0 1 0 1 0 0 0 0 0 0 0 0 0 0 0 0 0 0 0 0 0 0 0 0 0 0
-0 -1 -1 -1 -0 -0 -0 -0 -0 -0 0 0 0 0 1 1 1 1 0 0 1 0 1 0 0 0 0 0 0 0 0 0 0 0 0 0 0 0 0 0 0 0 0
-0 -0 -0 -1 -1 -0 -0 0 0 0 0 -0 -0 0 1 1 -0 0 0 1 0 0 1 0 0 0 0 0 0 0 0 0 0 0 0 0 -0 0 0 0 0 0 0
0 -0 -0 -1 0 0 0 0 0 0 0 -0 -0 1 1 0 0 0 0 1 0 0 0 0 0 0 0 0 0 0 0 0 0 0 0 0 0 0 0 0 0 0 0
Wind_Speed_500mb
45 50 53 53 54 53 55 53 53 54 50 47 43 40 40 37 35 34 34 31 30 29 29 32 32 32 30 26 24 22 22 30 28 27 35 34 23 20 28 32 31 9 16
45 46 50 51 49 52 54 51 52 52 48 44 40 37 36 33 32 31 29 28 27 25 26 29 30 31 29 26 24 23 21 32 29 24 24 29 27 22 26 19 23 12 17
41 47 44 46 49 49 49 50 49 48 45 40 38 35 34 32 29 27 24 25 23 23 24 25 27 28 27 25 22 21 22 29 27 18 16 20 25 18 21 24 14 20 21
44 40 44 46 45 45 46 46 45 44 41 37 34 32 30 29 26 24 23 22 20 20 22 24 24 23 23 21 22 18 21 26 28 19 14 25 12 19 21 24 24 22 24
47 37 44 43 43 43 44 43 41 39 38 34 29 25 22 23 21 21 19 18 18 18 21 23 23 21 21 20 20 18 17 21 25 31 22 8 8 17 20 25 21 27 24
41 32 42 40 39 40 42 40 36 36 35 30 25 20 16 16 16 16 17 19 17 18 20 21 22 21 19 21 21 21 19 19 17 14 25 6 11 14 21 29 24 25 21
39 35 39 36 36 39 40 37 33 33 32 28 23 16 14 12 13 13 16 16 16 18 20 20 21 21 20 22 24 25 19 19 8 20 12 9 8 12 21 24 23 22 21
38 36 35 35 36 38 39 37 33 31 29 27 21 17 14 9 9 13 18 15 16 17 19 20 21 21 22 25 27 28 22 15 3 14 21 9 6 10 19 23 21 21 18
38 30 32 34 37 39 38 34 30 30 29 26 22 19 11 7 11 13 16 16 17 18 21 19 22 22 26 30 30 22 25 17 11 23 11 17 6 8 16 19 19 18 19
40 31 28 31 38 40 39 33 31 31 27 25 22 15 9 8 10 11 14 18 18 15 18 21 20 22 27 32 30 29 27 24 22 28 4 24 10 5 11 14 17 18 17
35 35 31 32 27 32 38 34 27 26 23 21 18 13 10 10 9 12 14 21 17 16 19 24 20 21 20 22 27 31 31 30 15 31 11 21 8 3 7 10 14 17 18
41 35 45 31 30 23 26 30 23 20 17 16 12 7 2 6 8 13 13 11 8 10 9 20 14 16 23 24 28 33 21 23 29 6 9 19 7 10 3 8 10 13 17
43 36 43 29 38 33 35 17 14 10 9 7 5 5 6 14 1 20 8 11 1 17 7 14 12 16 16 13 15 18 18 16 19 15 21 20 15 12 5 7 7 10 13
54 45 37 32 39 30 36 12 15 15 13 14 16 18 18 3 5 11 7 8 13 5 20 20 16 17 19 17 23 24 16 16 13 19 21 15 19 15 6 7 11 10 11
45 46 35 32 40 36 29 23 25 29 18 20 23 20 16 7 18 11 11 10 14 17 18 11 12 10 17 21 23 13 22 13 14 6 13 19 22 15 6 9 12 16 11
44 43 42 38 42 41 39 31 23 33 21 22 19 27 21 16 20 15 18 13 12 13 15 13 17 12 12 12 12 16 26 16 20 10 8 10 15 17 9 6 10 10 17
46 45 47 43 37 42 38 37 35 24 19 19 18 27 30 27 28 25 11 14 14 18 22 20 13 18 11 20 8 16 16 16 10 24 9 11 9 12 9 11 8 11 12
47 49 47 38 40 30 41 34 43 29 28 27 21 35 26 28 24 24 8 19 6 25 10 18 15 18 14 13 13 11 13 12 15 13 8 4 4 11 14 8 4 8 11
50 53 52 43 43 36 36 42 32 32 28 29 34 16 33 28 22 13 13 19 10 24 20 18 11 9 9 10 7 9 6 3 5 3 4 9 5 8 5 5 9 11 9
57 56 57 53 46 48 43 26 31 23 31 33 29 32 28 26 24 24 13 21 25 18 12 20 5 12 10 9 10 11 7 6 7 5 7 7 13 11 8 10 8 15 6
58 61 61 62 56 41 43 44 44 37 33 25 25 23 29 28 26 29 23 22 14 9 18 15 19 21 3 8 15 14 20 3 12 9 7 6 11 8 10 9 5 8 8
63 65 64 65 65 65 51 45 47 35 32 30 31 35 32 32 25 21 17 9 13 8 10 21 25 8 5 9 9 12 12 15 14 19 6 6 12 9 6 5 10 7 3
70 70 70 66 67 68 61 56 45 41 43 29 32 34 34 37 26 21 23 16 16 20 18 14 8 4 3 2 13 5 11 5 18 19 7 13 7 9 5 7 17 15 2
71 74 72 72 67 66 65 49 41 44 35 33 28 32 34 29 20 36 22 18 27 17 16 11 5 11 5 4 3 6 11 5 6 7 18 11 3 5 5 8 7 19 16
71 76 78 71 68 68 62 62 49 49 47 34 35 30 42 28 13 17 23 29 26 18 18 20 20 14 11 9 8 7 2 9 5 3 4 10 4 12 9 3 11 11 12
74 75 79 76 74 68 65 63 54 50 45 39 38 36 34 27 29 38 36 35 27 20 22 17 15 13 24 18 16 14 3 7 8 6 10 12 10 12 17 14 12 10 21
Wind_Direction_500mb
122 122 123 131 133 131 129 128 130 130 126 123 117 110 105 102 99 95 90 88 83 71 63 58 54 53 55 62 66 72 74 71 69 74 71 71 57 88 104 103 98 96 98
129 129 128 131 132 132 133 131 130 131 131 125 117 110 106 103 100 94 90 86 76 64 57 53 48 49 52 58 65 68 75 79 72 69 70 62 65 84 108 127 122 103 108
129 126 130 132 134 133 135 134 134 137 135 126 116 113 106 100 95 91 86 78 67 60 55 50 49 47 47 53 52 52 74 98 84 62 75 89 65 85 109 109 111 114 108
128 130 131 137 140 141 138 137 139 143 137 129 124 114 99 94 88 84 78 67 58 54 50 44 41 47 47 51 58 53 64 105 95 75 73 99 63 91 102 105 111 111 112
133 143 137 143 145 145 144 141 143 146 142 138 136 118 99 92 87 81 74 57 50 52 45 37 35 37 51 47 55 65 76 93 102 97 99 86 60 85 117 122 115 121 111
136 153 141 139 141 149 148 145 146 150 147 149 142 125 106 94 86 78 57 42 52 54 37 36 40 38 44 51 47 57 74 90 104 93 93 40 45 84 125 120 114 123 117
140 149 143 140 141 146 150 151 151 156 159 155 148 133 122 107 89 70 42 41 50 39 37 38 42 41 42 43 47 52 64 71 77 112 156 168 49 106 123 126 126 129 125
143 147 148 149 151 150 151 154 154 157 159 160 156 151 140 112 87 56 44 46 42 37 39 39 39 37 42 41 46 61 63 71 243 105 155 130 71 124 125 131 134 137 134
145 154 153 156 156 156 153 147 150 156 163 164 162 157 154 108 61 40 29 38 35 34 32 34 45 47 51 43 41 60 65 58 8 45 68 105 76 124 125 134 132 145 139
145 146 142 156 158 158 152 152 155 156 155 158 162 168 152 109 55 26 16 11 4 17 32 37 47 62 45 38 51 35 29 19 332 348 256 56 27 107 119 130 142 147 150
156 157 154 150 155 163 167 163 160 156 159 167 174 167 165 73 42 6 4 354 353 27 49 56 58 47 33 27 27 21 22 21 359 355 48 40 22 10 110 128 146 154 163
156 170 147 164 155 155 172 180 181 172 170 173 163 127 228 308 85 7 313 336 340 76 26 81 52 33 24 4 355 357 18 1 358 336 304 319 346 345 190 135 165 162 175
168 162 171 173 170 154 190 202 171 154 158 162 167 233 342 303 201 254 301 325 328 334 358 62 54 14 12 331 343 325 322 3 9 17 355 2 354 326 276 188 182 190 185
174 174 172 180 162 169 202 177 152 205 191 211 225 231 234 266 227 272 59 330 6 281 39 24 34 344 352 320 314 352 351 320 346 338 323 338 346 312 253 207 197 197 207
166 166 179 191 181 179 175 185 190 206 198 233 220 263 302 239 279 308 278 315 336 355 327 2 336 325 310 344 358 10 327 0 320 299 319 319 329 332 270 220 205 212 201
175 184 191 182 183 186 193 191 205 193 212 199 236 251 262 238 253 254 288 329 355 299 318 284 310 308 12 348 353 338 340 350 332 341 255 306 316 354 319 258 229 222 225
176 179 184 188 203 199 194 203 192 193 227 208 228 254 265 277 253 257 262 307 308 295 307 307 321 298 320 356 321 336 344 326 300 321 101 307 310 323 13 355 256 237 230
182 189 190 193 203 208 194 208 209 194 212 212 238 237 250 264 274 256 296 282 267 285 314 304 319 326 0 335 318 316 322 340 336 24 53 242 354 340 308 306 351 310 267
191 192 192 196 207 215 210 215 204 208 213 232 228 246 266 248 269 289 259 296 271 285 298 309 279 295 322 286 286 317 323 327 342 132 26 61 48 38 36 292 357 337 271
197 202 202 198 202 218 224 219 200 218 227 220 242 239 260 249 270 257 260 264 282 271 272 287 318 298 340 331 302 258 200 234 181 90 94 89 91 52 7 358 341 284 263
199 202 207 201 203 203 205 208 203 206 226 239 236 235 231 226 262 271 238 252 276 296 255 275 286 279 308 259 284 328 226 267 150 154 168 186 81 331 270 88 335 60 245
201 204 209 209 206 210 208 216 220 200 216 234 229 234 244 259 280 265 274 236 257 257 300 276 320 195 190 266 294 287 214 192 203 171 178 98 144 88 59 11 278 240 358
201 206 211 213 210 214 213 223 224 208 226 231 226 229 262 263 249 248 245 203 221 222 254 274 17 342 203 264 326 252 355 91 193 212 186 205 119 202 114 352 346 10 209
204 208 210 214 216 218 214 214 213 209 213 220 231 225 248 234 266 224 243 207 233 198 227 265 206 222 139 108 326 335 357 329 349 138 183 212 227 176 25 123 3 330 341
205 204 209 216 216 216 219 204 211 209 217 207 221 227 221 230 223 212 216 219 243 201 216 211 221 183 167 191 136 257 239 344 24 272 4 216 214 205 264 58 284 291 314
205 203 206 209 215 217 216 213 204 211 203 211 218 212 207 225 232 214 221 233 232 187 214 233 229 208 191 197 196 201 270 271 247 269 288 318 324 322 265 263 271 243 249
Wind_Speed_850mb
45 50 53 53 54 53 55 53 53 54 50 47 43 40 40 37 35 34 34 31 30 29 29 32 32 32 30 26 24 22 22 30 28 27 35 34 23 20 28 32 31 9 16
45 46 50 51 49 52 54 51 52 52 48 44 40 37 36 33 32 31 29 28 27 25 26 29 30 31 29 26 24 23 21 32 29 24 24 29 27 22 26 19 23 12 17
41 47 44 46 49 49 49 50 49 48 45 40 38 35 34 32 29 27 24 25 23 23 24 25 27 28 27 25 22 21 22 29 27 18 16 20 25 18 21 24 14 20 21
44 40 44 46 45 45 46 46 45 44 41 37 34 32 30 29 26 24 23 22 20 20 22 24 24 23 23 21 22 18 21 26 28 19 14 25 12 19 21 24 24 22 24
47 37 44 43 43 43 44 43 41 39 38 34 29 25 22 23 21 21 19 18 18 18 21 23 23 21 21 20 20 18 17 21 25 31 22 8 8 17 20 25 21 27 24
41 32 42 40 39 40 42 40 36 36 35 30 25 20 16 16 16 16 17 19 17 18 20 21 22 21 19 21 21 21 19 19 17 14 25 6 11 14 21 29 24 25 21
39 35 39 36 36 39 40 37 33 33 32 28 23 16 14 12 13 13 16 16 16 18 20 20 21 21 20 22 24 25 19 19 8 20 12 9 8 12 21 24 23 22 21
38 36 35 35 36 38 39 37 33 31 29 27 21 17 14 9 9 13 18 15 16 17 19 20 21 21 22 25 27 28 22 15 3 14 21 9 6 10 19 23 21 21 18
38 30 32 34 37 39 38 34 30 30 29 26 22 19 11 7 11 13 16 16 17 18 21 19 22 22 26 30 30 22 25 17 11 23 11 17 6 8 16 19 19 18 19
40 31 28 31 38 40 39 33 31 31 27 25 22 15 9 8 10 11 14 18 18 15 18 21 20 22 27 32 30 29 27 24 22 28 4 24 10 5 11 14 17 18 17
35 35 31 32 27 32 38 34 27 26 23 21 18 13 10 10 9 12 14 21 17 16 19 24 20 21 20 22 27 31 31 30 15 31 11 21 8 3 7 10 14 17 18
41 35 45 31 30 23 26 30 23 20 17 16 12 7 2 6 8 13 13 11 8 10 9 20 14 16 23 24 28 33 21 23 29 6 9 19 7 10 3 8 10 13 17
43 36 43 29 38 33 35 17 14 10 9 7 5 5 6 14 1 20 8 11 1 17 7 14 12 16 16 13 15 18 18 16 19 15 21 20 15 12 5 7 7 10 13
54 45 37 32 39 30 36 12 15 15 13 14 16 18 18 3 5 11 7 8 13 5 20 20 16 17 19 17 23 24 16 16 13 19 21 15 19 15 6 7 11 10 11
45 46 35 32 40 36 29 23 25 29 18 20 23 20 16 7 18 11 11 10 14 17 18 11 12 10 17 21 23 13 22 13 14 6 13 19 22 15 6 9 12 16 11
44 43 42 38 42 41 39 31 23 33 21 22 19 27 21 16 20 15 18 13 12 13 15 13 17 12 12 12 12 16 26 16 20 10 8 10 15 17 9 6 10 10 17
46 45 47 43 37 42 38 37 35 24 19 19 18 27 30 27 28 25 11 14 14 18 22 20 13 18 11 20 8 16 16 16 10 24 9 11 9 12 9 11 8 11 12
47 49 47 38 40 30 41 34 43 29 28 27 21 35 26 28 24 24 8 19 6 25 10 18 15 18 14 13 13 11 13 12 15 13 8 4 4 11 14 8 4 8 11
50 53 52 43 43 36 36 42 32 32 28 29 34 16 33 28 22 13 13 19 10 24 20 18 11 9 9 10 7 9 6 3 5 3 4 9 5 8 5 5 9 11 9
57 56 57 53 46 48 43 26 31 23 31 33 29 32 28 26 24 24 13 21 25 18 12 20 5 12 10 9 10 11 7 6 7 5 7 7 13 11 8 10 8 15 6
58 61 61 62 56 41 43 44 44 37 33 25 25 23 29 28 26 29 23 22 14 9 18 15 19 21 3 8 15 14 20 3 12 9 7 6 11 8 10 9 5 8 8
63 65 64 65 65 65 51 45 47 35 32 30 31 35 32 32 25 21 17 9 13 8 10 21 25 8 5 9 9 12 12 15 14 19 6 6 12 9 6 5 10 7 3
70 70 70 66 67 68 61 56 45 41 43 29 32 34 34 37 26 21 23 16 16 20 18 14 8 4 3 2 13 5 11 5 18 19 7 13 7 9 5 7 17 15 2
71 74 72 72 67 66 65 49 41 44 35 33 28 32 34 29 20 36 22 18 27 17 16 11 5 11 5 4 3 6 11 5 6 7 18 11 3 5 5 8 7 19 16
71 76 78 71 68 68 62 62 49 49 47 34 35 30 42 28 13 17 23 29 26 18 18 20 20 14 11 9 8 7 2 9 5 3 4 10 4 12 9 3 11 11 12
74 75 79 76 74 68 65 63 54 50 45 39 38 36 34 27 29 38 36 35 27 20 22 17 15 13 24 18 16 14 3 7 8 6 10 12 10 12 17 14 12 10 21
Wind_Direction_850mb
122 122 123 131 133 131 129 128 130 130 126 123 117 110 105 102 99 95 90 88 83 71 63 58 54 53 55 62 66 72 74 71 69 74 71 71 57 88 104 103 98 96 98
129 129 128 131 132 132 133 131 130 131 131 125 117 110 106 103 100 94 90 86 76 64 57 53 48 49 52 58 65 68 75 79 72 69 70 62 65 84 108 127 122 103 108
129 126 130 132 134 133 135 134 134 137 135 126 116 113 106 100 95 91 86 78 67 60 55 50 49 47 47 53 52 52 74 98 84 62 75 89 65 85 109 109 111 114 108
128 130 131 137 140 141 138 137 139 143 137 129 124 114 99 94 88 84 78 67 58 54 50 44 41 47 47 51 58 53 64 105 95 75 73 99 63 91 102 105 111 111 112
133 143 137 143 145 145 144 141 143 146 142 138 136 118 99 92 87 81 74 57 50 52 45 37 35 37 51 47 55 65 76 93 102 97 99 86 60 85 117 122 115 121 111
136 153 141 139 141 149 148 145 146 150 147 149 142 125 106 94 86 78 57 42 52 54 37 36 40 38 44 51 47 57 74 90 104 93 93 40 45 84 125 120 114 123 117
140 149 143 140 141 146 150 151 151 156 159 155 148 133 122 107 89 70 42 41 50 39 37 38 42 41 42 43 47 52 64 71 77 112 156 168 49 106 123 126 126 129 125
143 147 148 149 151 150 151 154 154 157 159 160 156 151 140 112 87 56 44 46 42 37 39 39 39 37 42 41 46 61 63 71 243 105 155 130 71 124 125 131 134 137 134
145 154 153 156 156 156 153 147 150 156 163 164 162 157 154 108 61 40 29 38 35 34 32 34 45 47 51 43 41 60 65 58 8 45 68 105 76 124 125 134 132 145 139
145 146 142 156 158 158 152 152 155 156 155 158 162 168 152 109 55 26 16 11 4 17 32 37 47 62 45 38 51 35 29 19 332 348 256 56 27 107 119 130 142 147 150
156 157 154 150 155 163 167 163 160 156 159 167 174 167 165 73 42 6 4 354 353 27 49 56 58 47 33 27 27 21 22 21 359 355 48 40 22 10 110 128 146 154 163
156 170 147 164 155 155 172 180 181 172 170 173 163 127 228 308 85 7 313 336 340 76 26 81 52 33 24 4 355 357 18 1 358 336 304 319 346 345 190 135 165 162 175
168 162 171 173 170 154 190 202 171 154 158 162 167 233 342 303 201 254 301 325 328 334 358 62 54 14 12 331 343 325 322 3 9 17 355 2 354 326 276 188 182 190 185
174 174 172 180 162 169 202 177 152 205 191 211 225 231 234 266 227 272 59 330 6 281 39 24 34 344 352 320 314 352 351 320 346 338 323 338 346 312 253 207 197 197 207
166 166 179 191 181 179 175 185 190 206 198 233 220 263 302 239 279 308 278 315 336 355 327 2 336 325 310 344 358 10 327 0 320 299 319 319 329 332 270 220 205 212 201
175 184 191 182 183 186 193 191 205 193 212 199 236 251 262 238 253 254 288 329 355 299 318 284 310 308 12 348 353 338 340 350 332 341 255 306 316 354 319 258 229 222 225
176 179 184 188 203 199 194 203 192 193 227 208 228 254 265 277 253 257 262 307 308 295 307 307 321 298 320 356 321 336 344 326 300 321 101 307 310 323 13 355 256 237 230
182 189 190 193 203 208 194 208 209 194 212 212 238 237 250 264 274 256 296 282 267 285 314 304 319 326 0 335 318 316 322 340 336 24 53 242 354 340 308 306 351 310 267
191 192 192 196 207 215 210 215 204 208 213 232 228 246 266 248 269 289 259 296 271 285 298 309 279 295 322 286 286 317 323 327 342 132 26 61 48 38 36 292 357 337 271
197 202 202 198 202 218 224 219 200 218 227 220 242 239 260 249 270 257 260 264 282 271 272 287 318 298 340 331 302 258 200 234 181 90 94 89 91 52 7 358 341 284 263
199 202 207 201 203 203 205 208 203 206 226 239 236 235 231 226 262 271 238 252 276 296 255 275 286 279 308 259 284 328 226 267 150 154 168 186 81 331 270 88 335 60 245
201 204 209 209 206 210 208 216 220 200 216 234 229 234 244 259 280 265 274 236 257 257 300 276 320 195 190 266 294 287 214 192 203 171 178 98 144 88 59 11 278 240 358
201 206 211 213 210 214 213 223 224 208 226 231 226 229 262 263 249 248 245 203 221 222 254 274 17 342 203 264 326 252 355 91 193 212 186 205 119 202 114 352 346 10 209
204 208 210 214 216 218 214 214 213 209 213 220 231 225 248 234 266 224 243 207 233 198 227 265 206 222 139 108 326 335 357 329 349 138 183 212 227 176 25 123 3 330 341
205 204 209 216 216 216 219 204 211 209 217 207 221 227 221 230 223 212 216 219 243 201 216 211 221 183 167 191 136 257 239 344 24 272 4 216 214 205 264 58 284 291 314
205 203 206 209 215 217 216 213 204 211 203 211 218 212 207 225 232 214 221 233 232 187 214 233 229 208 191 197 196 201 270 271 247 269 288 318 324 322 265 263 271 243 249